Location: Alsip
(41.6689°N, 87.7387°W)
Time: 13:59:25
(UTC+00:00)

Cosmos 1743 - Pass Details

Date: 14 July 2020
Orbit: 511 x 526 km, 82.6° (Epoch: 04 August)

Event Time Altitude Azimuth Distance (km) Brightness Sun altitude
Exits shadow 09:23:02 16° 226° (SW) 1,402 4.2 -10.8°
Maximum altitude 09:25:32 32° 283° (WNW) 894 3.6 -10.5°
Drops below altitude 10° 09:29:01 10° 348° (NNW) 1,752 5.8 -10.0°
Sets 09:31:20 0° 359° (N) 2,646 6.9 -9.7°
